Weather in Sabirabad

Azerbaijan     39°59′25″N   48°27′47″E
temp.,
°C
wind,
m/s
gust,
m/s
humid.,
%
clouds,
%
prec.,
mm/h
press.,
hPa
HPBL,
m
19 january, wed
wed1901:00+2wsw612450 0.0 1015229
04:00+2w613440 0.0 1015331
07:00+1w411445 0.0 1015246
10:00+4w41039100 0.0 1016347
13:00+8wnw5726100 0.0 1015586
16:00+9nnw3325100 0.0 1014688
19:00+5e594786 0.0 1015218
22:00+4ese477094 0.0 1016135
20 january, thu
thu2001:00+2ese227411 0.0 101632
04:00+2nnw2367100 0.0 101649
07:00+2nnw3572100 0.0 1017195
10:00+2w3477100 0.2 1017285
13:00+2nw4582100 1.3 1017483
16:00+2wnw2497100 3.3 1016207
19:00+2ne1198100 0.4 1018178
22:00+1sse4597100 0.9 1020311
21 january, fri
fri2101:00+1sw2486100 0.0 1021198
04:000nw23865 0.0 102253
07:00−1w23885 0.0 102425
10:00+1wnw59540 0.0 1027499
13:00+5wnw68410 0.0 1026825
16:00+6w55330 0.0 10261055
19:00+3wsw34530 0.0 102658
22:00+2w33600 0.0 102633
22 january, sat
sat2201:000w35715 0.0 102581
04:00−1w34685 0.0 102353
07:00−1w367080 0.0 1022105
10:00+1w4654100 0.0 1022253
13:00+6w45319 0.0 1021658
16:00+7wsw442972 0.0 1019740
19:00+4sw224398 0.0 101916
22:00+3sse3352100 0.0 102027
23 january, sun
sun2301:00+2ssw0064100 0.0 102010
04:00+1e116498 0.0 102010
07:00+1wsw225884 0.0 102020
10:00+3wnw36455 0.0 1022210
13:00+8w32330 0.0 1021489
16:00+9se12392 0.0 1020771
19:00+6e22517 0.0 102111
22:00+5ne22535 0.0 102110